Regional Weather Roundup
Issued by NWS Memphis, TN

Home | Current Version | Previous Version | Text Only | Print | Product List | Glossary On
Versions: 1 2 3 4 5 6 7 8 9 10 11 12 13 14 15 16 17 18 19 20 21 22 23 24 25 26 27 28 29 30 31 32 33 34 35 36 37 38 39 40 41 42 43 44 45 46 47 48 49 50
000
ASUS44 KMEG 140310
RWRMEG
MEMPHIS CWA HOURLY WEATHER ROUNDUP
NATIONAL WEATHER SERVICE MEMPHIS TN
900 PM CST SAT FEB 13 2016

...WEST TENNESSEE...

CITY           SKY/WX    TMP DP  RH WIND       PRES   REMARKS
MEMPHIS INTL   PTCLDY    32   9  38 NE9       30.39F WCI  24
NWS MEMPHIS      N/A     29 N/A N/A MISG        N/A
JACKSON        CLOUDY    29   5  36 E7        30.42F WCI  22
LEXINGTON      PTCLDY    28   1  31 NE8       30.41F WCI  20
DYERSBURG      MOCLDY    28   9  43 E6        30.45S WCI  22
UNION CITY     CLOUDY    27   7  43 E8        30.43S WCI  18
PARIS          CLOUDY    25   5  42 E7        30.43F WCI  17


...EASTERN ARKANSAS...

CITY           SKY/WX    TMP DP  RH WIND       PRES   REMARKS
JONESBORO      CLOUDY    25  13  60 NE9       30.42F WCI  15
WEST MEMPHIS   CLEAR     29  13  51 E8        30.40F HAZE    WCI  21
BATESVILLE     CLOUDY    27   7  43 E13       30.40F WCI  16
NEWPORT        CLOUDY    26  11  53 NE9       30.42F WCI  17
WALNUT RIDGE   CLOUDY    25   7  46 E7        30.43F WCI  17
BLYTHEVILLE    PTCLDY    28  11  48 E6        30.44F WCI  22
SEARCY         PTCLDY    28  16  59 E7        30.41F WCI  21
STUTTGART      CLEAR     32  16  51 NE7       30.39F WCI  26
PINE BLUFF     CLEAR     32  16  51 E6        30.38F WCI  26
MONTICELLO     CLEAR     34  18  52 E3        30.37F


...NORTH MISSISSIPPI...

CITY           SKY/WX    TMP DP  RH WIND       PRES   REMARKS
TUPELO         CLEAR     32   5  32 N8        30.41F WCI  25
TUNICA         CLEAR     30  16  55 NE7       30.40F WCI  23
CORINTH        CLEAR     32   7  34 NE5       30.40F WCI  27
GREENWOOD      CLEAR     38  13  35 E6        30.38S WCI  33
COLUMBUS       CLEAR     35  12  39 NE6       30.40F WCI  30
STARKVILLE     FAIR      36  10  35 NE6       30.39F WCI  31
GOLDEN TRIANGL CLEAR     36  10  35 NE5       30.39F WCI  32


...SOUTHEAST MISSOURI...

CITY           SKY/WX    TMP DP  RH WIND       PRES   REMARKS
WEST PLAINS    CLOUDY    24   2  38 SE10      30.33F WCI  14
POPLAR BLUFF   CLOUDY    27   5  39 E9        30.43F WCI  18
CAPE GIRARDEAU CLOUDY    26   5  40 E7        30.46S WCI  18


...NORTHWEST ALABAMA...

CITY           SKY/WX    TMP DP  RH WIND       PRES   REMARKS
MUSCLE SHOALS  CLOUDY    31   6  35 E7        30.43F WCI  24


...MIDDLE TENNESSEE...

CITY           SKY/WX    TMP DP  RH WIND       PRES   REMARKS
NASHVILLE      CLOUDY    27   4  37 NE8       30.46F WCI  19
CLARKSVILLE    CLOUDY    25   6  44 NE9       30.46F WCI  15
COLUMBIA       CLOUDY    27   7  43 NE10      30.41F WCI  17


...WESTERN KENTUCKY...

CITY           SKY/WX    TMP DP  RH WIND       PRES   REMARKS
PADUCAH        CLOUDY    25   5  42 E9        30.45F WCI  15
FORT CAMPBELL  CLOUDY    24   7  46 NE8       30.45F WCI  16


...CENTRAL ARKANSAS...

CITY           SKY/WX    TMP DP  RH WIND       PRES   REMARKS
LITTLE ROCK    PTCLDY    32  14  47 E8        30.39F WCI  25


SKY/WX REPORTED AS FAIR MEANS FEW OR NO CLOUDS BELOW
12 THOUSAND FEET.




USA.gov is the U.S. government's official web portal to all federal, state and local government web resources and services.